Location: Berlin
(52.5171°N, 13.3759°E)
Time: 11:55:17
(UTC+02:00)

ISS - Visible Passes

Search period start: 20 May 2018 00:00
Search period end: 30 May 2018 00:00
Orbit: 402 x 407 km, 51.6° (Epoch: 20 May)

Date Brightness Start Highest point End Pass type
(mag) Time Alt. Az. Time Alt. Az. Time Alt. Az.
20 May -2.5 00:06:25 26° ESE 00:06:25 26° ESE 00:08:09 10° E visible
20 May -4.0 01:38:57 17° W 01:41:22 78° S 01:44:38 10° E visible
20 May -3.7 03:14:33 10° W 03:17:45 52° SSW 03:20:57 10° ESE visible
20 May -3.0 23:10:05 10° SW 23:12:58 29° SSE 23:15:53 10° E visible
21 May -4.0 00:45:56 10° WSW 00:49:12 71° S 00:52:28 10° E visible
21 May -3.9 02:22:21 10° W 02:25:36 65° SSW 02:28:51 10° ESE visible
21 May -2.7 03:59:02 10° W 04:01:45 24° SSW 04:04:29 10° SSE visible
21 May -2.5 22:18:26 10° SSW 22:20:57 21° SSE 22:23:28 10° E visible
21 May -3.9 23:53:48 10° WSW 23:57:02 60° SSE 00:00:16 10° E visible
22 May -4.0 01:30:10 10° W 01:33:26 75° S 01:36:42 10° E visible
22 May -3.2 03:06:42 10° W 03:09:42 34° SSW 03:12:42 10° SE visible
22 May -3.6 23:01:44 10° SW 23:04:53 46° SSE 23:08:02 10° E visible
23 May -4.0 00:37:58 10° W 00:41:14 78° S 00:44:30 10° E visible
23 May -3.7 02:14:25 10° W 02:17:36 47° SSW 02:20:45 10° SE visible
23 May -2.1 03:51:39 10° WSW 03:53:31 14° SW 03:55:22 10° S visible
23 May -3.2 22:09:46 10° SW 22:12:46 33° SSE 22:15:46 10° E visible
23 May -4.0 23:45:45 10° WSW 23:49:01 74° S 23:52:18 10° E visible
24 May -3.9 01:22:11 10° W 01:25:26 61° SSW 01:27:49 17° ESE visible
24 May -2.1 02:58:57 10° W 03:00:12 17° WSW 03:00:12 17° WSW visible
24 May -3.9 22:53:34 10° WSW 22:56:49 64° SSE 23:00:04 10° E visible
25 May -4.0 00:29:57 10° W 00:33:13 72° S 00:35:35 17° ESE visible
25 May -2.4 02:06:31 10° W 02:08:09 22° WSW 02:08:09 22° WSW visible
25 May -3.6 22:01:25 10° WSW 22:04:37 51° SSE 22:07:48 10° E visible
25 May -4.0 23:37:43 10° W 23:40:59 78° S 23:44:15 10° E visible
26 May -3.4 01:14:11 10° W 01:17:03 41° SW 01:17:03 41° SW visible
26 May -3.9 22:45:27 10° W 22:48:44 76° S 22:52:00 10° E visible
27 May -3.8 00:21:55 10° W 00:25:08 56° SSW 00:26:10 36° SE visible
27 May -3.8 21:53:13 10° WSW 21:56:29 68° S 21:59:44 10° E visible
27 May -3.9 23:29:38 10° W 23:32:53 69° S 23:35:24 16° ESE visible
28 May -2.3 01:06:14 10° W 01:08:01 22° WSW 01:08:01 22° WSW visible
28 May -3.9 22:37:21 10° W 22:40:37 77° S 22:43:53 10° E visible
29 May -3.3 00:13:51 10° W 00:16:55 38° SSW 00:17:18 36° S visible
29 May -3.6 23:21:31 10° W 23:24:42 51° SSW 23:26:37 21° SE visible
